Stations météo

réclame
Mon MeteoGroup
Crosby, Grande-Bretagne (3316): Température de l'air & dewpoint: 19.01.2020 03:00:00 - 25.01.2020 03:00:00 (GMT)Crosby, Grande-Bretagne (3316): Vitesse du vent: 19.01.2020 03:00:00 - 25.01.2020 03:00:00 (GMT)Crosby, Grande-Bretagne (3316): Direction du vent: 19.01.2020 03:00:00 - 25.01.2020 03:00:00 (GMT)Crosby, Grande-Bretagne (3316): reduced air pressure: 19.01.2020 03:00:00 - 25.01.2020 03:00:00 (GMT)Crosby, Grande-Bretagne (3316): visibility: 19.01.2020 03:00:00 - 25.01.2020 03:00:00 (GMT)Crosby, Grande-Bretagne (3316): Quantités de précipitations: 19.01.2020 03:00:00 - 25.01.2020 03:00:00 (GMT)
Date & Time tt [°C] td [°C] ff [km/h] ff [knt] dd ppp [hPa] vv [km] rr [mm]
25.01.2020 03:00:00 6,4 6,3 8 4 S 1017,9 4,0 0,0
25.01.2020 02:00:00 6,4 6,2 9 5 S 1018,6 2,6 0,0
25.01.2020 01:00:00 6,4 6,1 9 5 SSW 1019,0 5 0,0
25.01.2020 00:00:00 6,8 6,4 8 4 S 1019,6 5 0,0
24.01.2020 23:00:00 6,4 6,3 5 3 S 1020,1 1,2 0,0
24.01.2020 22:00:00 6,6 6,3 2 1 SW 1020,5 2,3 0,0
24.01.2020 21:00:00 6,6 6,3 8 4 SW 1020,6 4,4 0,0
24.01.2020 20:00:00 6,5 6,1 9 5 SSW 1021,0 8 0,0
24.01.2020 19:00:00 6,7 5,8 2 1 WSW 1021,1 40 0,0
24.01.2020 18:00:00 6,8 5,8 8 4 WNW 1020,9 45 0,0
24.01.2020 17:00:00 6,9 5,6 9 5 WNW 1020,9 50 0,0
24.01.2020 16:00:00 7,1 5,9 11 6 W 1021,1 50 0,0
24.01.2020 15:00:00 7,2 6,2 13 7 WNW 1021,3 35 0,0
24.01.2020 14:00:00 7,1 6,4 11 6 WNW 1021,7 17 0,0
24.01.2020 13:00:00 7,2 6,6 16 9 WNW 1022,0 13 0,0
24.01.2020 12:00:00 7,1 6,5 13 7 WNW 1022,7 18 0,0
24.01.2020 11:00:00 7,1 6,9 15 8 W 1023,2 8 0,0
24.01.2020 10:00:00 6,9 6,8 13 7 WNW 1023,3 6 0,4
24.01.2020 09:00:00 6,9 6,8 13 7 W 1023,3 2,2 0,2
24.01.2020 08:00:00 6,7 6,6 15 8 W 1023,1 5 0,0
24.01.2020 07:00:00 6,8 6,6 15 8 W 1023,0 9 0,0
24.01.2020 06:00:00 6,7 6,4 15 8 W 1023,0 7 0,0
24.01.2020 05:00:00 6,8 6,6 16 9 W 1023,0 8 0,0
24.01.2020 04:00:00 6,8 6,7 16 9 W 1023,7 5 0,0
24.01.2020 03:00:00 6,7 6,7 13 7 W 1024,3 4,7 0,0
24.01.2020 02:00:00 6,8 6,8 13 7 WNW 1024,9 1,4 0,0
24.01.2020 01:00:00 6,7 6,7 11 6 W 1025,5 3,7 0,0
24.01.2020 00:00:00 6,6 6,6 11 6 W 1026,2 1,4 0,0
23.01.2020 23:00:00 6,3 6,3 8 4 SW 1026,7 2,8 0,0
23.01.2020 22:00:00 6,2 6,2 5 3 N 1027,3 2,7 0,2
23.01.2020 21:00:00 6,3 6,3 15 8 N 1027,7 0,5 0,2
23.01.2020 20:00:00 6,6 6,6 8 4 W 1027,8 0,7 0,0
23.01.2020 19:00:00 6,6 6,6 5 3 W 1028,0 0,3 0,2
23.01.2020 18:00:00 6,6 6,6 8 4 NNW 1028,4 0,5 0,0
23.01.2020 17:00:00 6,4 6,3 8 4 W 1028,6 0,2 0,0
23.01.2020 16:00:00 7,2 6,4 8 4 W 1029,0 13 0,0
23.01.2020 15:00:00 7,6 6,8 5 3 S 1029,2 23 0,0
23.01.2020 14:00:00 7,8 6,7 5 3 NW 1030,0 7 0,0
23.01.2020 13:00:00 9,6 7,4 5 3 SSW 1030,9 10 0,0
23.01.2020 12:00:00 9,5 7,9 8 4 S 1031,6 6 0,0
23.01.2020 11:00:00 9,5 8,9 4 2 E 1032,5 8 0,0
23.01.2020 10:00:00 7,4 7,3 5 3 S 1032,8 2,5 0,0
23.01.2020 09:00:00 7,4 7,4 5 3 SSE 1033,1 3,0 0,0
23.01.2020 08:00:00 7,0 7,0 2 1 S 1033,3 1,6 0,0
23.01.2020 07:00:00 7,1 7,1 2 1 SE 1033,5 2,9 0,0
23.01.2020 06:00:00 7,0 7,0 8 4 S 1033,4 2,6 0,0
23.01.2020 05:00:00 7,0 7,0 8 4 S 1034,0 2,8 0,0
23.01.2020 04:00:00 6,8 6,8 5 3 SSW 1034,3 0,9 0,0
23.01.2020 03:00:00 6,6 6,6 9 5 S 1035,0 0,7 0,0
23.01.2020 02:00:00 6,6 6,6 8 4 SSW 1035,5 0,3 0,0
23.01.2020 01:00:00 6,5 6,5 4 2 SSW 1036,0 0,2 0,0
23.01.2020 00:00:00 6,5 6,5 5 3 SSW 1036,3 0,2 0,2
22.01.2020 23:00:00 6,5 6,5 2 1 S 1036,6 0,2 0,0
22.01.2020 22:00:00 6,2 6,2 4 2 S 1037,0 0,4 0,0
22.01.2020 21:00:00 6,0 6,0 4 2 NNW 1037,0 0,3 0,0
22.01.2020 20:00:00 5,9 5,9 4 2 SW 1037,3 1,9 0,0
22.01.2020 19:00:00 5,6 5,6 2 1 WSW 1037,6 0,5 0,0
22.01.2020 18:00:00 5,5 5,4 5 3 NW 1037,7 0,1 0,0
22.01.2020 17:00:00 6,5 6,5 5 3 WNW 1037,6 0,6 0,0
22.01.2020 16:00:00 7,1 7,1 11 6 W 1037,4 0,2 0,0
22.01.2020 15:00:00 7,6 7,6 9 5 WNW 1037,9 0,2 0,0
22.01.2020 14:00:00 8,3 8,2 11 6 N 1038,2 18 0,0
22.01.2020 13:00:00 8,5 8,5 13 7 N 1038,5 11 0,0
22.01.2020 12:00:00 8,6 8,5 13 7 N 1038,9 6 0,0
22.01.2020 11:00:00 8,8 8,7 11 6 N 1039,3 4,9 0,0
22.01.2020 10:00:00 7,7 7,7 13 7 N 1039,2 2,4 0,0
22.01.2020 09:00:00 7,2 7,2 15 8 NW 1039,0 2,0 0,0
22.01.2020 08:00:00 7,2 7,2 13 7 NW 1038,8 1,3 0,0
22.01.2020 07:00:00 7,1 7,1 13 7 NW 1038,6 0,7 0,0
22.01.2020 06:00:00 7,2 7,1 13 7 NW 1038,5 1,4 0,0
22.01.2020 05:00:00 7,3 7,2 16 9 WNW 1038,5 1,8 0,0
22.01.2020 04:00:00 7,0 7,0 8 4 W 1038,8 2,2 0,0
22.01.2020 03:00:00 7,1 7,0 9 5 W 1039,0 1,2 0,0
22.01.2020 02:00:00 7,4 7,2 13 7 WNW 1039,4 3,1 0,0
22.01.2020 01:00:00 7,2 6,9 9 5 WNW 1039,7 4,5 0,0
22.01.2020 00:00:00 7,4 7,0 15 8 WNW 1039,8 4,7 0,0
21.01.2020 23:00:00 7,2 7,0 15 8 WNW 1040,1 4,7 0,0
21.01.2020 22:00:00 7,1 7,0 15 8 WNW 1040,0 4,6 0,0
21.01.2020 21:00:00 7,1 7,1 18 10 WNW 1040,3 3,5 0,0
21.01.2020 20:00:00 7,0 6,9 15 8 NW 1040,6 3,0 0,0
21.01.2020 19:00:00 7,1 7,0 21 11 NW 1040,4 2,4 0,0
21.01.2020 18:00:00 7,1 7,0 16 9 WNW 1040,2 7 0,0
21.01.2020 17:00:00 6,9 6,8 11 6 WNW 1040,1 4,2 0,0
21.01.2020 16:00:00 7,0 6,9 11 6 WNW 1040,5 2,9 0,0
21.01.2020 15:00:00 6,5 6,5 16 9 W 1040,7 1,7 0,0
21.01.2020 14:00:00 6,5 6,3 16 9 W 1041,2 1,7 0,0
21.01.2020 13:00:00 7,1 6,4 13 7 W 1041,8 5 0,0
21.01.2020 12:00:00 7,1 6,1 13 7 W 1041,9 8 0,0
21.01.2020 11:00:00 6,9 5,7 13 7 W 1042,1 14 0,0
21.01.2020 10:00:00 7,3 6,1 15 8 WNW 1041,8 11 0,0
21.01.2020 09:00:00 7,2 6,0 16 9 NW 1041,8 8 0,0
21.01.2020 08:00:00 7,0 5,3 16 9 WNW 1041,7 9 0,0
21.01.2020 07:00:00 6,9 5,0 16 9 WNW 1041,6 12 0,0
21.01.2020 06:00:00 6,7 4,9 11 6 NW 1042,0 12 0,0
21.01.2020 05:00:00 6,9 4,8 18 10 NW 1041,8 17 0,0
21.01.2020 04:00:00 7,4 4,2 21 11 NW 1041,8 24 0,0
21.01.2020 03:00:00 6,9 4,8 15 8 NW 1042,3 18 0,0
21.01.2020 02:00:00 6,8 5,0 15 8 NW 1042,7 14 0,0
21.01.2020 01:00:00 7,0 4,8 24 13 WNW 1043,1 19 0,0
21.01.2020 00:00:00 6,8 4,4 21 11 WNW 1043,9 24 0,0
20.01.2020 23:00:00 6,0 4,9 15 8 W 1044,4 17 0,0
20.01.2020 22:00:00 6,5 4,8 16 9 W 1044,7 21 0,0
20.01.2020 21:00:00 6,6 4,5 16 9 W 1045,1 15 0,0
20.01.2020 20:00:00 6,8 4,5 15 8 W 1045,6 17 0,0
20.01.2020 19:00:00 6,6 4,5 21 11 WNW 1045,5 15 0,0
20.01.2020 18:00:00 6,7 4,8 22 12 WNW 1045,4 19 0,0
20.01.2020 17:00:00 6,7 5,1 22 12 WNW 1045,3 20 0,0
20.01.2020 16:00:00 6,9 5,2 15 8 WNW 1045,2 20 0,0
20.01.2020 15:00:00 7,7 5,1 11 6 NW 1045,8 22 0,0
20.01.2020 14:00:00 8,4 4,9 16 9 WNW 1046,2 40 0,0
20.01.2020 13:00:00 7,3 4,0 13 7 WSW 1046,7 29 0,0
20.01.2020 12:00:00 6,8 3,6 13 7 WSW 1047,3 26 0,0
20.01.2020 11:00:00 6,4 3,5 13 7 SW 1047,8 28 0,0
20.01.2020 10:00:00 5,0 3,5 13 7 S 1047,9 21 0,0
20.01.2020 09:00:00 2,8 1,9 13 7 S 1047,7 17 0,0
20.01.2020 08:00:00 1,2 0,2 5 3 SSE 1047,2 10 0,0
20.01.2020 07:00:00 2,5 1,6 11 6 S 1047,1 10 0,0
20.01.2020 06:00:00 2,2 1,5 9 5 SSW 1047,3 10 0,0
20.01.2020 05:00:00 1,6 0,6 8 4 SSE 1047,4 11 0,0
20.01.2020 04:00:00 3,9 2,5 13 7 S 1047,6 30 0,0
20.01.2020 03:00:00 2,9 1,8 11 6 S 1047,5 21 0,0
20.01.2020 02:00:00 3,7 2,1 13 7 S 1048,1 22 0,0
20.01.2020 01:00:00 2,6 1,4 13 7 S 1047,8 15 0,0
20.01.2020 00:00:00 2,6 1,8 9 5 SSE 1048,1 8 0,0
19.01.2020 23:00:00 3,7 2,4 9 5 S 1047,8 17 0,0
19.01.2020 22:00:00 3,4 2,5 11 6 S 1047,6 12 0,0
19.01.2020 21:00:00 3,5 2,4 11 6 S 1047,6 10 0,0
19.01.2020 20:00:00 4,5 3,5 11 6 S 1047,5 9 0,0
19.01.2020 19:00:00 3,7 3,2 5 3 S 1047,8 4,3 0,0
19.01.2020 18:00:00 4,0 3,5 4 2 S 1047,7 3,3 0,0
19.01.2020 17:00:00 3,9 3,4 5 3 S 1047,1 4,2 0,0
19.01.2020 16:00:00 4,6 3,0 5 3 SSE 1046,8 7 0,0
19.01.2020 15:00:00 6,0 3,8 5 3 S 1046,6 10 0,0
19.01.2020 14:00:00 6,4 4,1 4 2 S 1046,4 14 0,0
19.01.2020 13:00:00 5,2 3,6 8 4 S 1046,1 11 0,0
19.01.2020 12:00:00 4,3 3,6 9 5 S 1045,9 5 0,0
19.01.2020 11:00:00 3,6 3,6 5 3 SSE 1046,2 7 0,0
19.01.2020 10:00:00 2,4 2,4 5 3 S 1046,0 3,8 0,2
19.01.2020 09:00:00 0,8 0,8 8 4 SSE 1044,9 3,4 0,0
19.01.2020 08:00:00 -2,1 -2,6 8 4 S 1044,3 5 0,0
19.01.2020 07:00:00 -1,2 -1,3 8 4 S 1043,1 4,7 0,0
19.01.2020 06:00:00 -1,0 -1,3 0 0 N 1042,2 6 0,0
19.01.2020 05:00:00 -0,2 -0,7 2 1 NNW 1041,4 6 0,0
19.01.2020 04:00:00 1,5 1,2 4 2 NE 1040,6 1,3 0,0
19.01.2020 03:00:00 2,4 2,2 9 5 NNE 1040,0 11 0,0

tt = Température de l'air
td = dewpoint
ff = Vitesse du vent
dd = Direction du vent
ppp = reduced air pressure
vv = visibility
rr = Quantités de précipitations

stations d'obs. à proximité